Regional Weather Roundup
Issued by NWS

Home | Current Version | Previous Version | Text Only | Print | Product List | Glossary On
Versions: 1 2 3 4 5 6 7 8 9 10 11 12 13 14 15 16 17 18 19 20 21 22 23 24 25 26 27 28 29 30 31 32 33 34 35 36 37 38 39 40 41 42 43 44 45 46 47 48 49 50
000
ASUS45 KCYS 191510
RWRWY

WYOMING REGIONAL WEATHER ROUNDUP
NATIONAL WEATHER SERVICE CHEYENNE WY
800 AM MST SUN FEB 19 2017

NOTE:  "FAIR" INDICATES FEW OR NO CLOUDS BELOW 12,000 FEET
WITH NO SIGNIFICANT WEATHER AND/OR OBSTRUCTIONS TO VISIBILITY.

WYZ001-191600-
YELLOWSTONE NATIONAL PARK

CITY           SKY/WX    TMP DP  RH WIND       PRES   REMARKS
LK YELLOWSTONE   N/A     28  27  96 SE3       29.61R
W YELLOWSTONE  NOT AVBL

$$
WYZ002>013-054>058-071-098>099-191600-
NORTHERN WYOMING

CITY           SKY/WX    TMP DP  RH WIND       PRES   REMARKS
JACKSON        CLOUDY    34  32  93 S3        29.60S
CODY           FAIR      31  26  82 S6        29.51R WCI  25
GREYBULL       FAIR      39  31  72 SE7       29.51R WCI  34
WORLAND        FAIR      40  33  76 S14       29.51R WCI  32
SHERIDAN       FAIR      32  28  85 VRB7      29.47R WCI  26
BUFFALO        FAIR      47  26  44 S9        29.49S
GILLETTE       FAIR      48  32  53 SW18G29   29.50S
HULETT         FAIR      48  32  53 S16G26    29.54R
NEWCASTLE      FAIR      48  30  49 S10       29.60R

$$
WYZ014>020-022>026-101>103-191600-
CENTRAL WYOMING

CITY           SKY/WX    TMP DP  RH WIND       PRES   REMARKS
BIG PINEY      CLOUDY    31  29  92 VRB3      29.65R
PINEDALE       CLOUDY    32  32 100 SE12      29.65S WCI  23
DUBOIS         CLOUDY    34  28  80 CALM      29.57R
LANDER         FAIR      31  29  92 SW7       29.55F WCI  24
RIVERTON       FAIR      30  29  96 CALM      29.56S
CASPER         FAIR      42  30  62 SW10      29.61R
DOUGLAS        FAIR      43  29  57 S6        29.62R

$$
WYZ021-027>030-104>119-191600-
SOUTHERN WYOMING

CITY           SKY/WX    TMP DP  RH WIND       PRES   REMARKS
EVANSTON       MOCLDY    34  29  82 SW14      29.65R WCI  25
KEMMERER         N/A     34  32  93 SW10      29.66R WCI  26
FORT BRIDGER   FAIR      31  30  96 SW8       29.68R WCI  23
ROCK SPRINGS   FAIR      39  30  70 S20       29.64S WCI  29
DIXON            N/A     34  31  88 E3        29.75S
RAWLINS        FAIR      38  30  73 S9        29.69S WCI  31
SARATOGA       FAIR      37  30  75 CALM      29.71F
LARAMIE        FAIR      28  23  81 S5        29.71S WCI  23
CHEYENNE       FAIR      42  25  50 W6        29.69R
TORRINGTON     FAIR      35  28  75 CALM      29.65R
PINE BLUFFS    FAIR      30  27  86 W8        29.69R WCI  23

$$



USA.gov is the U.S. government's official web portal to all federal, state and local government web resources and services.